User: anonymous   Login
Location: Stoke Bliss
(52.2667°N, 2.5167°W)
Time: 02:51:22
(UTC+00:00)
Language:

Meteor 1-11 Rocket - Orbit

View from above orbital plane
View from above orbital plane
View from above satellite
View from above satellite

Ground track
Ground track

The orbit data is extracted from the following two-line orbital elements,

1  5918U 72022B   21137.67413571 -.00000048  00000-0 -36092-4 0  9992
2  5918  81.2402  22.0419 0056974 267.4872  91.9773 14.05884798518988
Epoch (UTC): 17 May 2021 16:10:45
Eccentricity: 0.0056974
inclination: 81.2402°
perigee height: 832 km
apogee height: 915 km
right ascension of ascending node: 22.0419°
argument of perigee: 267.4872°
revolutions per day: 14.05884798
mean anomaly at epoch: 91.9773°
orbit number at epoch: 51898

The dashed part of the orbit path shows where the satellite is in the earth's shadow,  

DLR